Tracking 32407 objects as of 6-Dec-2025
HD Live streaming from Space Station
objects crossing your sky now

KSM1-C

Track KSM1-C now!
10-day predictions
KSM1-C is classified as:


NORAD ID: 46906
Int'l Code: 2020-081B
Perigee: 502.3 km
Apogee: 508.1 km
Inclination: 36.9 °
Period: 94.6 minutes
Semi major axis: 6876 km
RCS: Unknown
Launch date: November 7, 2020
Source: Luxembourg (LUXE)
Launch site: SRIHARIKOTA (SRI)

Uplink (MHz):
Downlink (MHz): 401.120
Beacon (MHz):
Mode: 9600bps FSK
Call sign:
Status: Active

Your satellite tracking list
Your tracking list is empty




NASA's NSSDC Master Catalog

Two Line Element Set (TLE):
1 46906U 20081B   25339.01255345  .00017828  00000-0  75239-3 0  9998
2 46906  36.8915 174.2238 0004203  13.9615 346.1249 15.22575847279519
Source of the keplerian elements: AFSPC